Simultaneous Nadir Overpasses (SNOs) Predictions

Prediction of SNOs between GOES-16 and NOAA-19 Satellite Orbit:

Table of predicted SNOs for the next 14.0 days since TLE Epoch: 7/29/2023
Index Date Time (GOES-16) GOES-16 Lat,Lon NOAA-19 Lat,Lon Distance(km) Time Diff (sec)
1 07/29/2023 13:36:49 0.01, -75.21 -0.21, -74.36 98.20 80
2 07/30/2023 13:24:45 0.00, -75.21 -0.89, -71.42 433.26 80
3 08/01/2023 01:59:40 -0.00, -75.21 -0.90, -79.15 450.17 80
4 08/02/2023 01:47:37 -0.00, -75.21 -0.22, -76.22 114.69 80
5 08/03/2023 01:32:53 0.00, -75.22 0.46, -73.28 221.06 80
6 08/05/2023 13:55:26 -0.00, -75.25 0.66, -78.00 314.80 80
7 08/06/2023 13:40:43 -0.00, -75.26 -0.04, -75.07 21.84 80
8 08/07/2023 13:28:39 -0.00, -75.27 -0.73, -72.13 358.56 80
9 08/10/2023 01:51:31 0.00, -75.30 -0.38, -76.93 185.75 80
10 08/11/2023 01:36:48 0.00, -75.32 0.32, -74.00 151.29 80
